GW0774 Weather Reports


time (UTC)temp
F
wind
direction
speed
knots
gust
knots
rain 1hr
in
rain 24hr
in
rain mn
in
humidity
%
barometer
mb
20260905040057 57 307 11.3 25.2 0.00 0.02 0.02 81 1012.9
20260905035539 56 295 10.4 22.6 0.00 0.02 0.02 82 1013.0
20260905035039 56 263 11.3 22.6 0.00 0.02 0.02 82 1013.0
20260905034602 56 296 9.6 17.4 0.00 0.02 0.02 82 1012.9
20260905034043 56 290 8.7 17.4 0.00 0.02 0.02 83 1012.9
20260905033620 56 290 9.6 20.9 0.00 0.02 0.02 82 1012.9
20260905033047 56 271 12.2 20.9 0.00 0.02 0.02 82 1012.9
20260905032541 56 263 10.4 20.9 0.00 0.02 0.02 83 1013.0
20260905032038 57 288 10.4 20.9 0.00 0.02 0.02 82 1013.1
20260905031559 57 270 8.7 19.1 0.01 0.02 0.02 83 1013.1
20260905031039 57 250 11.3 18.2 0.01 0.02 0.02 84 1013.2
20260905030538 56 258 9.6 17.4 0.01 0.02 0.02 86 1013.2
20260905030054 56 300 8.7 16.5 0.01 0.02 0.02 88 1013.3
20260905025538 55 247 7.0 13.9 0.02 0.02 0.02 87 1013.4
20260905025040 55 245 8.7 13.9 0.02 0.02 0.02 88 1013.5
20260905024600 55 244 7.8 14.8 0.02 0.02 0.02 89 1013.6
20260905024039 55 236 9.6 14.8 0.02 0.02 0.02 90 1013.7
20260905023539 54 234 9.6 15.6 0.02 0.02 0.02 91 1013.8
20260905023104 54 250 7.8 15.6 0.02 0.02 0.02 90 1013.8
20260905022538 54 260 10.4 23.5 0.02 0.02 0.02 89 1013.7
20260905022039 56 252 12.2 27.8 0.02 0.02 0.02 85 1013.7
20260905021557 57 304 13.0 27.8 0.00 0.00 0.00 81 1013.5
20260905021038 57 251 13.0 26.9 0.00 0.00 0.00 81 1013.5
20260905020542 57 273 10.4 25.2 0.00 0.00 0.00 86 1013.3
20260905020055 56 261 12.2 25.2 0.00 0.00 0.00 83 1013.6
20260905015539 57 267 13.0 25.2 0.00 0.00 0.00 80 1013.8
20260905015042 58 243 8.7 25.2 0.00 0.00 0.00 78 1013.8
20260905014554 58 252 12.2 25.2 0.00 0.00 0.00 76 1013.7
20260905014039 58 239 10.4 23.5 0.00 0.00 0.00 79 1013.8
20260905013539 59 273 9.6 23.5 0.00 0.00 0.00 78 1013.8
20260905013050 59 271 10.4 20.9 0.00 0.00 0.00 79 1013.9
20260905012540 58 281 13.0 20.9 0.00 0.00 0.00 78 1014.0
20260905012041 59 231 9.6 17.4 0.00 0.00 0.00 78 1013.9
20260905011549 58 265 10.4 20.9 0.00 0.00 0.00 79 1014.0
20260905011039 59 298 10.4 20.9 0.00 0.00 0.00 76 1014.1
20260905010539 59 292 10.4 19.1 0.00 0.00 0.00 78 1014.1
20260905010057 59 240 10.4 23.5 0.00 0.00 0.00 77 1014.0
20260905005539 59 279 10.4 23.5 0.00 0.00 0.00 78 1014.1
20260905005039 59 285 12.2 23.5 0.00 0.00 0.00 76 1014.2
20260905004557 59 319 10.4 19.1 0.00 0.00 0.00 78 1014.5
20260905004039 58 317 10.4 19.1 0.00 0.00 0.00 77 1014.7
20260905003539 58 317 10.4 19.1 0.00 0.00 0.00 76 1014.7
20260905003051 58 292 11.3 19.1 0.00 0.00 0.00 77 1014.7
20260905002539 58 259 9.6 20.9 0.00 0.00 0.00 78 1014.7
20260905002039 58 314 8.7 20.9 0.00 0.00 0.00 79 1014.7
20260905001606 57 246 7.0 17.4 0.00 0.00 0.00 81 1015.0
20260905001038 57 291 7.8 17.4 0.00 0.00 0.00 79 1015.0
20260905000539 57 236 8.7 17.4 0.00 0.00 0.00 79 1015.2
20260905000112 57 235 8.7 14.8 0.00 0.00 0.00 79 1015.3
20260904235541 57 294 7.0 13.9 0.00 0.00 0.00 80 1015.4
20260904235038 57 271 8.7 14.8 0.00 0.00 0.00 78 1015.3
20260904234557 57 272 9.6 16.5 0.00 0.00 0.00 76 1015.3
20260904234039 57 257 8.7 18.2 0.00 0.00 0.00 79 1015.3
20260904233539 57 254 9.6 18.2 0.00 0.00 0.00 77 1015.3
20260904233109 57 265 10.4 18.2 0.00 0.00 0.00 75 1015.3
20260904232538 57 263 9.6 16.5 0.00 0.00 0.00 78 1015.2
20260904232040 57 274 7.8 13.9 0.00 0.00 0.00 78 1015.3
20260904231555 57 255 7.0 13.0 0.00 0.00 0.00 79 1015.3
20260904231039 57 232 7.8 13.9 0.00 0.00 0.00 78 1015.3
20260904230539 57 252 7.8 13.9 0.00 0.00 0.00 78 1015.3
20260904230105 57 267 7.0 15.6 0.00 0.00 0.00 80 1015.3
20260904225539 57 244 7.0 15.6 0.00 0.03 0.00 79 1015.4
20260904225038 58 270 7.0 15.6 0.00 0.03 0.00 79 1015.2
20260904224601 58 243 7.8 15.6 0.00 0.03 0.00 78 1015.3
20260904224039 58 250 9.6 15.6 0.00 0.03 0.00 79 1015.4
20260904223539 57 273 9.6 15.6 0.00 0.03 0.00 79 1015.3
20260904223114 57 34 7.8 15.6 0.00 0.03 0.00 79 1015.2
20260904222539 57 252 8.7 15.6 0.00 0.03 0.00 77 1015.1
20260904222039 58 284 8.7 14.8 0.00 0.03 0.00 79 1015.1
20260904221548 57 305 8.7 14.8 0.00 0.03 0.00 78 1015.1
20260904221039 58 247 6.1 14.8 0.00 0.03 0.00 79 1015.1
20260904220539 57 244 7.8 16.5 0.00 0.03 0.00 77 1014.9
20260904220058 57 276 10.4 16.5 0.00 0.03 0.00 75 1015.0
20260904215539 57 250 8.7 16.5 0.00 0.03 0.00 75 1015.0
20260904215041 57 237 10.4 16.5 0.00 0.03 0.00 76 1014.8
20260904214555 57 293 9.6 16.5 0.00 0.03 0.00 75 1014.8
20260904214039 57 285 10.4 17.4 0.00 0.03 0.00 75 1014.7
20260904213539 57 268 10.4 17.4 0.00 0.03 0.00 75 1014.7
20260904213101 57 275 10.4 14.8 0.00 0.03 0.00 77 1014.7
20260904212540 57 296 10.4 16.5 0.00 0.03 0.00 77 1014.6
20260904212039 57 275 7.8 16.5 0.00 0.03 0.00 77 1014.6
20260904211550 57 286 7.8 14.8 0.00 0.03 0.00 78 1014.9
20260904211037 57 298 7.0 13.9 0.00 0.03 0.00 79 1014.9
20260904210539 57 306 7.0 12.2 0.00 0.03 0.00 79 1014.9
20260904210105 57 273 4.3 12.2 0.00 0.03 0.00 79 1015.0
20260904205538 56 304 7.0 12.2 0.00 0.04 0.00 80 1015.0
20260904205038 56 271 7.0 10.4 0.00 0.04 0.00 79 1015.0
20260904204601 56 281 6.1 9.6 0.00 0.04 0.00 81 1015.0
20260904204043 56 293 6.1 13.9 0.00 0.04 0.00 80 1014.9
20260904203539 55 254 5.2 13.9 0.00 0.04 0.00 82 1014.9
20260904203101 55 293 7.0 13.9 0.00 0.04 0.00 83 1014.9
20260904202536 54 252 0.9 2.6 0.00 0.04 0.00 84 1014.8
20260904202038 54 36 0.0 3.5 0.00 0.04 0.00 83 1014.8
20260904201548 54 178 0.0 6.1 0.00 0.04 0.00 83 1014.7
20260904201036 54 44 0.9 6.1 0.00 0.04 0.00 83 1014.6
20260904200538 54 321 2.6 6.1 0.00 0.04 0.00 83 1014.4
20260904200057 54 273 2.6 6.1 0.00 0.04 0.00 84 1014.5
20260904195537 54 267 0.9 3.5 0.00 0.04 0.00 85 1014.5
20260904195039 53 265 0.0 7.8 0.00 0.04 0.00 85 1014.4
20260904194555 53 271 2.6 8.7 0.00 0.04 0.00 85 1014.3
20260904194039 52 285 5.2 11.3 0.00 0.04 0.00 85 1014.3
20260904193541 52 284 7.0 13.0 0.00 0.04 0.00 85 1014.2
20260904193103 52 296 7.8 13.0 0.00 0.04 0.00 85 1014.1
20260904192536 51 313 8.7 12.2 0.00 0.04 0.00 85 1013.9
20260904192041 51 278 6.1 11.3 0.00 0.04 0.00 85 1013.8
20260904191600 51 276 7.8 11.3 0.00 0.04 0.00 85 1013.7
20260904191037 51 311 7.0 11.3 0.00 0.04 0.00 85 1013.7
20260904190540 51 292 6.1 8.7 0.00 0.04 0.00 85 1013.7
20260904190101 51 279 5.2 8.7 0.00 0.04 0.00 85 1013.8
20260904185540 51 261 4.3 8.7 0.00 0.04 0.00 85 1013.8
20260904185041 51 294 3.5 8.7 0.00 0.04 0.00 85 1013.9
20260904184554 51 269 3.5 8.7 0.00 0.04 0.00 85 1013.8
20260904184039 51 290 4.3 8.7 0.00 0.04 0.00 86 1013.8
20260904183539 51 269 3.5 7.8 0.00 0.04 0.00 86 1013.7
20260904183101 51 264 3.5 7.8 0.00 0.04 0.00 86 1013.7
20260904182538 51 267 3.5 7.8 0.00 0.04 0.00 86 1013.6
20260904182039 51 266 2.6 6.1 0.00 0.04 0.00 85 1013.5
20260904181557 51 275 2.6 8.7 0.00 0.04 0.00 85 1013.5
20260904181039 51 271 2.6 8.7 0.00 0.04 0.00 85 1013.6
20260904180539 51 290 4.3 8.7 0.00 0.04 0.00 85 1013.3
20260904180103 51 271 2.6 9.6 0.00 0.04 0.00 85 1013.2
20260904175539 51 243 3.5 10.4 0.00 0.04 0.00 85 1013.1
20260904175040 51 269 4.3 10.4 0.00 0.04 0.00 85 1013.0
20260904174557 51 277 3.5 9.6 0.00 0.04 0.00 84 1013.0
20260904174040 51 264 4.3 9.6 0.00 0.04 0.00 84 1012.9
20260904173539 52 277 2.6 7.8 0.00 0.04 0.00 84 1012.9
20260904173056 52 302 3.5 7.8 0.00 0.04 0.00 84 1012.9
20260904172540 52 311 3.5 9.6 0.00 0.04 0.00 84 1012.8
20260904172039 52 268 5.2 10.4 0.00 0.04 0.00 84 1012.8
20260904171558 52 300 7.0 10.4 0.00 0.04 0.00 84 1012.6
20260904171040 52 290 5.2 10.4 0.00 0.04 0.00 84 1012.6
20260904170538 52 253 3.5 7.8 0.00 0.04 0.00 84 1012.6
20260904170059 52 263 3.5 9.6 0.00 0.04 0.00 84 1012.6
20260904165541 52 261 4.3 9.6 0.00 0.04 0.00 84 1012.6
20260904165039 52 261 3.5 9.6 0.00 0.04 0.00 84 1012.5
20260904164556 52 278 5.2 13.0 0.00 0.04 0.00 83 1012.5
20260904164039 52 255 6.1 13.0 0.00 0.04 0.00 83 1012.4
20260904163539 52 267 3.5 10.4 0.00 0.04 0.00 83 1012.3
20260904163052 52 302 4.3 15.6 0.00 0.04 0.00 82 1012.1
20260904162539 52 261 6.1 15.6 0.00 0.04 0.00 82 1012.1
20260904162042 52 237 5.2 12.2 0.00 0.04 0.00 82 1012.0
20260904161610 52 239 5.2 10.4 0.00 0.04 0.00 82 1011.9
20260904161039 52 248 3.5 12.2 0.00 0.04 0.00 82 1011.9
20260904160539 53 240 4.3 12.2 0.00 0.04 0.00 82 1011.8
20260904155539 53 261 7.0 13.9 0.00 0.04 0.00 81 1011.6
20260904155036 53 237 6.1 15.6 0.00 0.04 0.00 81 1011.5
20260904154555 53 294 7.0 15.6 0.00 0.04 0.00 81 1011.5
20260904154039 53 277 8.7 18.2 0.00 0.04 0.00 81 1011.4
20260904153539 53 244 6.1 18.2 0.00 0.04 0.00 81 1011.2
20260904153101 53 246 7.0 15.6 0.00 0.04 0.00 82 1011.3
20260904152538 53 263 6.1 12.2 0.00 0.04 0.00 83 1011.2
20260904152038 53 286 5.2 12.2 0.00 0.04 0.00 82 1011.2
20260904151601 53 320 6.1 12.2 0.00 0.04 0.00 82 1011.3
20260904151039 53 244 6.1 14.8 0.00 0.04 0.00 81 1011.4
20260904150539 53 280 7.8 14.8 0.00 0.04 0.00 81 1011.3
20260904150104 53 278 7.0 14.8 0.00 0.04 0.00 81 1011.4
20260904145539 53 286 6.1 14.8 0.00 0.04 0.00 81 1011.3
20260904145039 53 270 8.7 18.2 0.00 0.04 0.00 81 1011.1
20260904144613 53 283 7.8 18.2 0.00 0.04 0.00 80 1011.0
20260904144040 53 286 8.7 18.2 0.00 0.04 0.00 80 1011.4
20260904143539 53 301 7.8 13.9 0.00 0.04 0.00 80 1011.3
20260904143057 53 249 7.8 17.4 0.00 0.04 0.00 79 1011.3
20260904142539 53 246 8.7 17.4 0.00 0.04 0.00 79 1011.1
20260904142040 53 243 7.8 16.5 0.00 0.04 0.00 79 1011.1
20260904141606 53 242 7.8 16.5 0.00 0.04 0.00 80 1011.1
20260904141039 53 253 7.8 15.6 0.00 0.04 0.00 80 1011.0
20260904140538 53 259 8.7 15.6 0.00 0.04 0.00 81 1011.1
20260904140056 53 244 7.8 14.8 0.00 0.04 0.00 81 1011.0
20260904135539 53 265 6.1 17.4 0.00 0.04 0.00 80 1011.1
20260904135038 53 292 7.8 18.2 0.00 0.04 0.00 79 1011.2
20260904134552 54 258 9.6 18.2 0.00 0.04 0.00 78 1011.0
20260904134039 53 245 7.0 14.8 0.00 0.04 0.00 79 1011.1
20260904133541 54 257 8.7 17.4 0.00 0.04 0.00 78 1011.2
20260904133057 54 247 10.4 17.4 0.00 0.04 0.00 78 1011.1
20260904132539 54 283 10.4 13.9 0.00 0.04 0.00 78 1011.1
20260904132039 54 243 9.6 13.9 0.00 0.04 0.00 79 1011.3
20260904131606 53 257 7.8 13.0 0.00 0.04 0.00 80 1011.2
20260904131039 53 232 6.1 13.9 0.00 0.04 0.00 79 1011.1
20260904130539 54 259 7.0 16.5 0.00 0.04 0.00 78 1011.1
20260904130057 54 244 8.7 16.5 0.00 0.04 0.00 77 1011.1
20260904125539 53 259 6.1 16.5 0.00 0.04 0.00 78 1011.1
20260904125043 53 259 7.8 16.5 0.00 0.04 0.00 77 1011.1
20260904124603 53 249 5.2 14.8 0.00 0.04 0.00 78 1011.1
20260904124039 53 254 6.1 14.8 0.00 0.04 0.00 77 1011.1
20260904123538 53 259 6.1 13.9 0.00 0.04 0.00 77 1011.0
20260904123054 53 272 7.0 16.5 0.00 0.04 0.00 77 1010.9
20260904122539 54 296 7.0 16.5 0.00 0.04 0.00 77 1010.8
20260904122045 53 246 7.0 16.5 0.00 0.04 0.00 78 1010.6
20260904121559 54 247 7.0 18.2 0.00 0.04 0.00 77 1010.6
20260904121038 54 240 9.6 18.2 0.00 0.04 0.00 76 1010.6
20260904120538 54 259 7.0 17.4 0.00 0.04 0.00 76 1010.6
20260904120106 54 239 9.6 20.0 0.00 0.04 0.00 76 1010.6
20260904115538 54 277 7.8 20.0 0.00 0.04 0.04 77 1010.6
20260904115039 54 248 11.3 20.0 0.00 0.04 0.04 77 1010.4
20260904114557 53 279 7.8 13.9 0.00 0.04 0.04 79 1010.3
20260904114040 53 311 7.0 15.6 0.00 0.04 0.04 80 1010.3
20260904113541 53 250 7.0 17.4 0.00 0.04 0.04 80 1010.2
20260904113056 54 298 8.7 17.4 0.00 0.04 0.04 80 1010.2
20260904112540 53 315 9.6 17.4 0.00 0.04 0.04 80 1010.1
20260904112039 53 237 7.8 14.8 0.00 0.04 0.04 80 1009.9
20260904111600 53 284 8.7 16.5 0.00 0.04 0.04 79 1009.9
20260904111039 53 243 9.6 16.5 0.00 0.04 0.04 78 1010.0
20260904110539 53 252 8.7 16.5 0.00 0.04 0.04 77 1010.0
20260904110105 53 269 7.8 20.0 0.00 0.04 0.04 77 1009.9
20260904105539 54 257 9.6 20.0 0.00 0.04 0.04 76 1009.8
20260904105039 53 257 10.4 20.0 0.00 0.04 0.04 77 1009.9
20260904104557 53 252 8.7 14.8 0.00 0.04 0.04 79 1009.9
20260904104039 53 252 8.7 13.9 0.00 0.04 0.04 80 1009.9
20260904103541 53 254 7.8 17.4 0.00 0.04 0.04 80 1009.9
20260904103054 53 316 9.6 18.2 0.00 0.04 0.04 80 1009.9
20260904102539 53 296 7.8 18.2 0.00 0.04 0.04 80 1009.7
20260904102038 53 265 9.6 18.2 0.00 0.04 0.04 80 1009.7
20260904101600 53 249 9.6 18.2 0.00 0.04 0.04 79 1009.6
20260904101038 53 267 8.7 19.1 0.00 0.04 0.04 78 1009.3
20260904100539 53 284 8.7 19.1 0.00 0.04 0.04 77 1009.4
20260904100120 53 230 11.3 20.0 0.00 0.04 0.04 76 1009.3
20260904095541 53 248 9.6 20.0 0.00 0.04 0.04 77 1009.3
20260904095039 53 268 9.6 18.2 0.00 0.04 0.04 77 1009.3
20260904094557 53 254 7.8 19.1 0.00 0.04 0.04 78 1009.2
20260904094039 53 260 8.7 19.1 0.00 0.04 0.04 78 1009.3
20260904093539 53 266 8.7 19.1 0.00 0.04 0.04 78 1009.2
20260904093055 54 261 7.8 21.7 0.00 0.04 0.04 79 1009.0
20260904092539 54 271 9.6 21.7 0.00 0.04 0.04 79 1008.9
20260904092041 54 270 9.6 17.4 0.00 0.04 0.04 80 1008.8
20260904091553 54 256 9.6 18.2 0.00 0.04 0.04 80 1008.8
20260904091042 54 300 7.8 18.2 0.00 0.04 0.04 80 1009.0
20260904090538 54 250 9.6 19.1 0.00 0.04 0.04 81 1009.0
20260904090058 54 288 9.6 19.1 0.00 0.04 0.04 81 1009.1
20260904085538 54 293 8.7 20.9 0.00 0.04 0.04 82 1008.9
20260904085040 54 231 9.6 22.6 0.00 0.04 0.04 81 1008.5
20260904084557 54 287 11.3 22.6 0.00 0.04 0.04 81 1008.3
20260904084040 54 252 11.3 19.1 0.00 0.04 0.04 80 1008.2
20260904083539 54 260 11.3 19.1 0.00 0.04 0.04 80 1008.2
20260904083106 54 273 10.4 19.1 0.00 0.04 0.04 80 1008.4
20260904082539 54 237 11.3 19.1 0.00 0.04 0.04 80 1008.3
20260904082039 54 238 10.4 19.1 0.00 0.04 0.04 80 1008.2
20260904081600 54 264 10.4 20.0 0.00 0.04 0.04 79 1008.3
20260904081039 54 242 11.3 20.9 0.00 0.04 0.04 79 1008.3
20260904080538 54 255 10.4 21.7 0.00 0.04 0.04 79 1008.1
20260904080056 54 250 12.2 21.7 0.00 0.04 0.04 78 1008.0
20260904075539 54 259 13.0 22.6 0.00 0.04 0.04 77 1007.8
20260904075038 54 263 13.9 22.6 0.00 0.04 0.04 76 1007.7
20260904074610 55 272 12.2 22.6 0.00 0.04 0.04 78 1007.6
20260904074039 55 267 11.3 21.7 0.00 0.04 0.04 80 1007.5
20260904073540 55 263 12.2 21.7 0.00 0.04 0.04 82 1007.6
20260904073100 55 236 13.0 24.3 0.00 0.04 0.04 82 1007.5
20260904072539 55 252 13.9 24.3 0.00 0.04 0.04 82 1007.6
20260904072038 55 267 13.0 22.6 0.00 0.04 0.04 83 1007.6
20260904071625 55 243 13.0 22.6 0.00 0.04 0.04 82 1007.5
20260904071039 55 249 11.3 20.0 0.00 0.04 0.04 81 1007.4
20260904070539 55 254 11.3 24.3 0.00 0.04 0.04 80 1007.4
20260904070113 55 281 12.2 25.2 0.00 0.04 0.04 80 1007.4
20260904065539 56 241 13.9 25.2 0.00 0.04 0.04 79 1007.2
20260904065039 56 253 11.3 23.5 0.00 0.04 0.04 79 1007.0
20260904064609 56 252 13.0 23.5 0.00 0.04 0.04 79 1006.8
20260904064039 56 259 13.0 22.6 0.00 0.04 0.04 79 1006.6
20260904063539 56 298 13.0 21.7 0.00 0.04 0.04 79 1006.5
20260904063100 55 244 10.4 27.8 0.00 0.04 0.04 80 1006.6
20260904062541 55 247 12.2 27.8 0.00 0.04 0.04 79 1006.6
20260904062038 55 249 9.6 22.6 0.00 0.04 0.04 80 1006.5
20260904061558 55 262 13.0 22.6 0.00 0.04 0.04 79 1006.7
20260904061039 55 261 9.6 18.2 0.00 0.04 0.04 80 1006.7
20260904060540 55 256 8.7 20.9 0.00 0.04 0.04 80 1006.6
20260904060100 55 239 12.2 20.9 0.00 0.04 0.04 79 1006.7
20260904055539 55 225 11.3 18.2 0.00 0.04 0.04 79 1006.6
20260904055039 55 286 9.6 18.2 0.00 0.04 0.04 79 1006.6
20260904054554 55 324 8.7 20.0 0.00 0.04 0.04 79 1006.6
20260904054040 55 228 9.6 20.0 0.00 0.04 0.04 79 1006.6
20260904053539 55 268 9.6 20.9 0.00 0.04 0.04 79 1006.5
20260904053108 56 260 10.4 20.9 0.00 0.04 0.04 79 1006.2
20260904052540 56 259 10.4 22.6 0.00 0.04 0.04 79 1006.1
20260904052040 56 246 9.6 23.5 0.00 0.04 0.04 79 1006.1
20260904051559 56 307 9.6 23.5 0.00 0.04 0.04 79 1006.1
20260904051039 56 248 9.6 19.1 0.00 0.04 0.04 80 1006.4
20260904050539 56 262 8.7 17.4 0.00 0.04 0.04 80 1006.2
20260904050058 57 241 9.6 26.1 0.00 0.04 0.04 80 1005.9
20260904045539 57 263 7.8 26.1 0.00 0.04 0.04 79 1005.9
20260904045039 57 244 10.4 21.7 0.00 0.04 0.04 78 1005.7
20260904044604 57 296 9.6 21.7 0.00 0.04 0.04 78 1005.7
20260904044040 57 277 10.4 20.9 0.00 0.04 0.04 77 1005.6
20260904043539 58 246 10.4 22.6 0.00 0.04 0.04 76 1005.6
20260904043105 58 308 11.3 22.6 0.00 0.04 0.04 78 1005.7
20260904042541 58 299 14.8 23.5 0.00 0.04 0.04 76 1005.5
20260904042039 58 268 10.4 23.5 0.00 0.04 0.04 75 1005.3
20260904041606 58 344 11.3 22.6 0.00 0.04 0.04 74 1005.2
20260904041039 58 243 12.2 23.5 0.00 0.04 0.04 74 1005.4
20260904040542 58 289 13.0 23.5 0.00 0.04 0.04 74 1005.4